Home > Weather > Río Grande > Past weeks

Flag for Argentina Past Weather in Río Grande, Tierra del Fuego, Argentina — Yesterday and Last 2 Weeks

Now
34 °F

Light freezing rain. Overcast.


Feels Like: 34 °F
Forecast: 33 / 40 °F
Wind: No wind

Location: Rio Grande B. A.

Current Time: Jul 27, 2016 at 12:36:08 PM

Latest Report: Jul 27, 2016 at 12:00 PM


Visibility: N/A

Pressure: 30.33 "Hg

Humidity: 93%

Dew Point: 32 °F

Location of Río GrandeLocation

Past Weather in Río Grande — Graph

°F

Río Grande Temperature Yesterday

Maximum temperature yesterday: 45 °F (at 4:00 PM)
Minimum temperature yesterday: 27 °F (at 3:00 AM)
Average temperature yesterday: 33 °F

High & Low Weather Summary for the Past Weeks

 TemperatureHumidityPressure
High45 °F (Jul 26, 4:00 PM)100% (Jul 12, 12:00 PM)32.55 "Hg (Jul 12, 12:00 PM)
Low23 °F (Jul 27, 3:00 AM)66% (Jul 22, 4:00 PM)29.06 "Hg (Jul 20, 11:00 PM)
Average35 °F90%29.89 "Hg
* Reported Jul 12 11:00 AM — Jul 27 11:00 AM, Río Grande, Weather by CustomWeather, © 2016

Note: Actual official high and low records may vary slightly from our data, if they occured in-between our weather recording intervals... More about our weather records

Advertising

Río Grande Weather History for the Previous 24 Hours

Scroll right to see more
 ConditionsComfort  
Time TempWeatherWind HumidityBarometerVisibility
11:00 AM
Wed, Jul 27
32 °FOvercast.3 mph93%30.33 "HgN/A
10:00 AM30 °FOvercast.1 mph93%30.33 "HgN/A
9:00 AM28 °FOvercast.2 mph93%30.33 "HgN/A
8:00 AM27 °FPassing clouds.3 mph93%30.30 "HgN/A
7:00 AM27 °FPassing clouds.5 mph93%30.30 "HgN/A
6:00 AM27 °FPassing clouds.3 mph93%30.30 "HgN/A
5:00 AM25 °FPassing clouds.5 mph93%30.30 "HgN/A
3:00 AM23 °FClear.5 mph93%30.33 "Hg10 mi
1:00 AM25 °FClear.5 mph93%30.36 "Hg10 mi
12:00 AM27 °FClear.5 mph93%30.33 "Hg10 mi
11:00 PM
Tue, Jul 26
27 °FClear.5 mph93%30.33 "Hg10 mi
10:00 PM28 °FClear.No wind93%30.33 "Hg10 mi
9:00 PM28 °FClear.3 mph93%30.33 "Hg10 mi
8:00 PM28 °FClear.No wind93%30.30 "Hg10 mi
7:00 PM36 °FClear.No wind81%30.30 "Hg10 mi
6:00 PM43 °FClear.3 mph71%30.30 "Hg10 mi
5:00 PM43 °FClear.3 mph71%30.30 "Hg10 mi
4:00 PM45 °FSunny.3 mph66%32.55 "Hg10 mi
3:00 PM43 °FSunny.5 mph71%30.27 "Hg10 mi
2:00 PM41 °FPassing clouds.5 mph76%30.27 "HgN/A
1:00 PM37 °FPassing clouds.6 mph81%30.27 "HgN/A
12:00 PM36 °FPassing clouds.5 mph87%30.27 "HgN/A
Weather by CustomWeather, © 2016

See weather overviewHow to use our weather pages